Tracking 28125 objects as of 2-Oct-2023
HD Live streaming from Space Station
objects crossing your sky now

THORAD DELTA 1 DEB

Track THORAD DELTA 1 DEB now!
10-day predictions


NORAD ID: 8435
Int'l Code: 1974-089CL
Perigee: 1,464.6 km
Apogee: 1,728.1 km
Inclination: 101.6 °
Period: 118.0 minutes
Semi major axis: 7967 km
RCS: 0.0834 m2 (small)
Launch date: November 15, 1974
Source: United States (US)
Launch site: AIR FORCE WESTERN TEST RANGE (AFWTR)

Note: This is SATELLITE DEBRIS
Your satellite tracking list
Your tracking list is empty




NASA's NSSDC Master Catalog

Two Line Element Set (TLE):
1 08435U 74089CL  23274.71405340 -.00000021  00000-0  17199-3 0  9994
2 08435 101.6361 201.5373 0165402 178.4565 249.8553 12.20767087178490
Source of the keplerian elements: AFSPC